Biloxi, MS

9:55 AM CDT on May 28, 2017 (GMT -0500)
Keesler Air Force Base

Weather History for KBIX - September, 2012

Change the Weather History Date:

Monday, September 24, 2012

  Actual Average Record
Temperature  
Mean Temperature 76 °F -  
Max Temperature 86 °F 85 °F 94 °F (1961)
Min Temperature 69 °F 68 °F 49 °F (1983)
Cooling Degree Days 12    
Growing Degree Days 26 (Base 50)    
Moisture  
Dew Point 63 °F    
Average Humidity 65    
Maximum Humidity 80    
Minimum Humidity 48    
Precipitation  
Precipitation 0.00 in - - ()
Sea Level Pressure  
Sea Level Pressure 30.13 in    
Wind  
Wind Speed 3 mph (ENE)    
Max Wind Speed 9 mph    
Max Gust Speed -    
Visibility 10 miles    
Events      
Averages and records for this station are not official NWS values.
T = Trace of Precipitation, MM = Missing Value Source: NWS Daily Summary

Daily Weather History Graph

Daily Weather History Graph

Search for Another Location

Airport or City:

Trip Planner

Search our weather history database for the weather conditions in past years. The results will help you decide how hot, cold, wet, or windy it might be!

Date:

Astronomy

Sep. 24, 2012 Rise Set
Actual Time 6:45 AM CDT 6:49 PM CDT
Civil Twilight 6:21 AM CDT 7:13 PM CDT
Nautical Twilight 5:53 AM CDT 7:40 PM CDT
Astronomical Twilight 5:25 AM CDT 8:09 PM CDT
Moon 3:16 PM CDT (9/24) 1:22 AM CDT (9/24)
Length of Visible Light 12h 51m
Length of Day
12h 03m
Waxing Gibbous, 71% of the Moon is Illuminated
Sep 24
Waxing Gibbous
Sep 29
Full
Oct 8
Last Quarter
Oct 15
New
Oct 21
First Quarter

Hourly Weather History & Observations

Time (CDT) Temp. Heat Index Dew Point Humidity Pressure Visibility Wind Dir Wind Speed Gust Speed Precip Events Conditions
12:55 AM 77.0 °F - 67.5 °F 72% 30.14 in 10.0 mi Calm Calm - N/A   Clear
1:55 AM 76.3 °F - 68.7 °F 77% 30.13 in 10.0 mi Calm Calm - N/A   Clear
2:55 AM 75.4 °F - 67.8 °F 77% 30.12 in 10.0 mi Calm Calm - N/A   Clear
3:55 AM 74.5 °F - 67.3 °F 78% 30.12 in 10.0 mi Calm Calm - N/A   Clear
4:55 AM 71.8 °F - 65.3 °F 80% 30.13 in 10.0 mi NNE 4.6 mph - N/A   Clear
5:44 AM 71.6 °F - 64.4 °F 78% 30.14 in 10.0 mi NE 6.9 mph - N/A   Mostly Cloudy
5:49 AM 71.6 °F - 64.4 °F 78% 30.14 in 10.0 mi NE 8.1 mph - N/A   Scattered Clouds
5:55 AM 70.5 °F - 63.9 °F 79% 30.14 in 10.0 mi NE 8.1 mph - N/A   Scattered Clouds
6:55 AM 69.3 °F - 61.2 °F 75% 30.16 in 10.0 mi NE 8.1 mph - N/A   Clear
7:55 AM 69.4 °F - 60.1 °F 72% 30.17 in 10.0 mi NE 6.9 mph - N/A   Clear
8:55 AM 72.3 °F - 59.4 °F 64% 30.18 in 10.0 mi NE 6.9 mph - N/A   Clear
9:55 AM 75.9 °F - 59.4 °F 56% 30.18 in 10.0 mi NNE 4.6 mph - N/A   Clear
10:55 AM 79.3 °F - 60.8 °F 53% 30.18 in 10.0 mi Variable 4.6 mph - N/A   Clear
11:55 AM 81.7 °F 82.6 °F 62.1 °F 51% 30.17 in 10.0 mi NNE 4.6 mph - N/A   Clear
12:55 PM 84.2 °F 85.0 °F 62.6 °F 48% 30.16 in 10.0 mi Calm Calm - N/A   Clear
1:55 PM 84.0 °F 85.6 °F 64.6 °F 52% 30.14 in 10.0 mi SSW 9.2 mph - N/A   Clear
2:55 PM 83.8 °F 85.3 °F 64.8 °F 52% 30.11 in 10.0 mi South 6.9 mph - N/A   Clear
3:55 PM 84.2 °F 85.8 °F 64.8 °F 52% 30.08 in 10.0 mi Calm Calm - N/A   Clear
4:55 PM 82.8 °F 84.7 °F 65.8 °F 56% 30.08 in 10.0 mi SSE 5.8 mph - N/A   Clear
5:55 PM 81.3 °F 83.2 °F 65.5 °F 58% 30.09 in 10.0 mi South 5.8 mph - N/A   Clear
6:55 PM 79.2 °F - 64.8 °F 61% 30.10 in 10.0 mi SSE 3.5 mph - N/A   Clear
7:55 PM 77.7 °F - 64.0 °F 63% 30.11 in 10.0 mi Calm Calm - N/A   Clear
8:55 PM 74.7 °F - 62.6 °F 66% 30.12 in 10.0 mi NE 5.8 mph - N/A   Clear
9:55 PM 75.6 °F - 59.7 °F 58% 30.13 in 10.0 mi ENE 5.8 mph - N/A   Clear
10:55 PM 72.7 °F - 59.4 °F 63% 30.13 in 10.0 mi ENE 4.6 mph - N/A   Clear
11:55 PM 71.1 °F - 57.0 °F 61% 30.12 in 10.0 mi ENE 5.8 mph - N/A   Clear